H1 CPF 1 NER 2011 12 3 9 8371 glonass123 H2 1004102 9123 37138 2011 12 3 0 0 0 2011 12 6 23 45 0 900 1 1 0 0 0 H9 10 0 55898 0.00000 0 6268914.687 9823764.010 22647248.115 10 0 55898 900.00000 0 4906964.106 12215366.060 21790260.239 10 0 55898 1800.00000 0 3783008.323 14583956.308 20507606.949 10 0 55898 2700.00000 0 2906577.909 16861115.733 18823825.886 10 0 55898 3600.00000 0 2274544.105 18979326.811 16771422.926 10 0 55898 4500.00000 0 1871441.180 20874684.240 14390258.209 10 0 55898 5400.00000 0 1670328.936 22489478.595 11726773.932 10 0 55898 6300.00000 0 1634160.104 23774540.331 8833078.364 10 0 55898 7200.00000 0 1717594.223 24691241.042 5765904.790 10 0 55898 8100.00000 0 1869179.007 25213063.366 2585467.775 10 0 55898 9000.00000 0 2033803.086 25326669.820 -645757.727 10 0 55898 9900.00000 0 2155311.420 25032423.157 -3864306.368 10 0 55898 10800.00000 0 2179167.053 24344335.652 -7007012.155 10 0 55898 11700.00000 0 2055040.986 23289450.531 -10012288.091 10 0 55898 12600.00000 0 1739215.587 21906684.382 -12821366.317 10 0 55898 13500.00000 0 1196696.055 20245183.418 -15379471.091 10 0 55898 14400.00000 0 402938.364 18362267.615 -17636899.244 10 0 55898 15300.00000 0 -654879.871 16321054.288 -19549985.871 10 0 55898 16200.00000 0 -1977098.217 14187865.461 -21081936.734 10 0 55898 17100.00000 0 -3551351.615 12029531.243 -22203512.746 10 0 55898 18000.00000 0 -5352893.918 9910704.225 -22893555.940 10 0 55898 18900.00000 0 -7345449.440 7891297.384 -23139350.332 10 0 55898 19800.00000 0 -9482553.242 6024150.900 -22936814.844 10 0 55898 20700.00000 0 -11709321.016 4353022.024 -22290528.875 10 0 55898 21600.00000 0 -13964572.716 2910977.198 -21213594.185 10 0 55898 22500.00000 0 -16183220.690 1719247.934 -19727339.443 10 0 55898 23400.00000 0 -18298823.492 786592.466 -17860876.073 10 0 55898 24300.00000 0 -20246201.116 109184.222 -15650516.008 10 0 55898 25200.00000 0 -21964006.016 -328972.983 -13139063.566 10 0 55898 26100.00000 0 -23397146.822 -555123.931 -10374995.136 10 0 55898 27000.00000 0 -24498968.234 -606375.847 -7411541.532 10 0 55898 27900.00000 0 -25233100.590 -527905.782 -4305688.822 10 0 55898 28800.00000 0 -25574905.734 -370835.806 -1117114.510 10 0 55898 29700.00000 0 -25512461.744 -189863.183 2092923.473 10 0 55898 30600.00000 0 -25047047.052 -40742.150 5262726.835 10 0 55898 31500.00000 0 -24193103.983 22280.131 8331307.319 10 0 55898 32400.00000 0 -22977682.033 -51031.202 11239528.515 10 0 55898 33300.00000 0 -21439381.686 -304555.081 13931219.907 10 0 55898 34200.00000 0 -19626839.312 -773729.491 16354243.955 10 0 55898 35100.00000 0 -17596812.216 -1483812.450 18461497.314 10 0 55898 36000.00000 0 -15411939.246 -2448563.394 20211827.724 10 0 55898 36900.00000 0 -13138266.160 -3669403.100 21570848.790 10 0 55898 37800.00000 0 -10842635.334 -5135091.559 22511635.961 10 0 55898 38700.00000 0 -8590046.047 -6821942.572 23015288.429 10 0 55898 39600.00000 0 -6441094.135 -8694571.818 23071343.279 10 0 55898 40500.00000 0 -4449597.907 -10707152.939 22678030.575 10 0 55898 41400.00000 0 -2660510.786 -12805134.445 21842360.505 10 0 55898 42300.00000 0 -1108210.545 -14927349.800 20580036.823 10 0 55898 43200.00000 0 184760.004 -17008435.219 18915194.285 10 0 55898 44100.00000 0 1208444.402 -18981454.995 16879961.580 10 0 55898 45000.00000 0 1965680.953 -20780623.525 14513855.429 10 0 55898 45900.00000 0 2471756.637 -22344007.440 11863015.851 10 0 55898 46800.00000 0 2753519.456 -23616090.626 8979296.850 10 0 55898 47700.00000 0 2847986.490 -24550089.653 5919231.016 10 0 55898 48600.00000 0 2800507.965 -25109917.403 2742890.294 10 0 55898 49500.00000 0 2662568.060 -25271707.835 -487331.749 10 0 55898 50400.00000 0 2489319.914 -25024834.241 -3707988.177 10 0 55898 51300.00000 0 2336964.519 -24372376.242 -6855868.175 10 0 55898 52200.00000 0 2260090.148 -23331015.667 -9869277.888 10 0 55898 53100.00000 0 2309090.303 -21930367.372 -12689283.206 10 0 55898 54000.00000 0 2527773.928 -20211776.346 -15260886.651 10 0 55898 54900.00000 0 2951272.145 -18226635.987 -17534112.944 10 0 55898 55800.00000 0 3604331.402 -16034303.105 -19464980.788 10 0 55898 56700.00000 0 4500064.931 -13699701.880 -21016342.176 10 0 55898 57600.00000 0 5639213.369 -11290721.167 -22158574.394 10 0 55898 58500.00000 0 7009942.692 -8875516.835 -22870113.939 10 0 55898 59400.00000 0 8588184.247 -6519832.985 -23137825.561 10 0 55898 60300.00000 0 10338498.716 -4284453.077 -22957203.433 10 0 55898 61200.00000 0 12215424.217 -2222884.862 -22332404.852 10 0 55898 62100.00000 0 14165249.384 -379371.537 -21276120.020 10 0 55898 63000.00000 0 16128135.748 1212693.191 -19809284.107 10 0 55898 63900.00000 0 18040500.530 2531885.794 -17960640.133 10 0 55898 64800.00000 0 19837561.593 3569368.504 -15766163.205 10 0 55898 65700.00000 0 21455940.856 4328979.470 -13268358.217 10 0 55898 66600.00000 0 22836220.961 4826798.067 -10515444.687 10 0 55898 67500.00000 0 23925352.612 5090206.609 -7560443.486 10 0 55898 68400.00000 0 24678816.370 5156489.357 -4460181.286 10 0 55898 69300.00000 0 25062452.575 5071027.518 -1274229.495 10 0 55898 70200.00000 0 25053886.192 4885164.658 1936204.836 10 0 55898 71100.00000 0 24643489.213 4653829.744 5109418.093 10 0 55898 72000.00000 0 23834841.190 4433014.548 8184360.420 10 0 55898 72900.00000 0 22644668.023 4277208.166 11101778.403 10 0 55898 73800.00000 0 21102259.514 4236893.506 13805330.937 10 0 55898 74700.00000 0 19248386.756 4356208.720 16242659.076 10 0 55898 75600.00000 0 17133760.386 4670870.755 18366390.916 10 0 55898 76500.00000 0 14817089.287 5206448.569 20135063.062 10 0 55898 77400.00000 0 12362816.020 5977060.265 21513940.785 10 0 55898 78300.00000 0 9838619.034 6984552.111 22475720.182 10 0 55898 79200.00000 0 7312782.197 8218198.319 23001096.918 10 0 55898 80100.00000 0 4851539.014 9654939.506 23079187.863 10 0 55898 81000.00000 0 2516501.233 11260155.521 22707794.133 10 0 55898 81900.00000 0 362279.507 12988945.805 21893496.573 10 0 55898 82800.00000 0 -1565602.702 14787868.362 20651577.769 10 0 55898 83700.00000 0 -3232412.021 16597068.012 19005768.099 10 0 55898 84600.00000 0 -4615450.150 18352706.655 16987817.120 10 0 55898 85500.00000 0 -5704785.078 19989593.636 14636895.805 10 0 55899 0.00000 0 -6503434.660 21443904.151 11998839.402 10 0 55899 900.00000 0 -7026992.475 22655868.067 9125244.617 10 0 55899 1800.00000 0 -7302710.958 23572312.153 6072440.334 10 0 55899 2700.00000 0 -7368080.610 24148942.632 2900352.690 10 0 55899 3600.00000 0 -7268968.208 24352268.371 -328709.344 10 0 55899 4500.00000 0 -7057395.986 24161078.329 -3551320.423 10 0 55899 5400.00000 0 -6789060.946 23567408.559 -6704227.959 10 0 55899 6300.00000 0 -6520704.785 22576956.478 -9725634.101 10 0 55899 7200.00000 0 -6307451.381 21208925.434 -12556441.066 10 0 55899 8100.00000 0 -6200229.526 19495308.233 -15141431.906 10 0 55899 9000.00000 0 -6243393.814 17479643.245 -17430361.149 10 0 55899 9900.00000 0 -6472646.582 15215299.755 -19378932.662 10 0 55899 10800.00000 0 -6913349.307 12763369.153 -20949645.882 10 0 55899 11700.00000 0 -7579293.622 10190254.524 -22112495.368 10 0 55899 12600.00000 0 -8471981.218 7565062.861 -22845512.669 10 0 55899 13500.00000 0 -9580439.364 4956910.685 -23135143.562 10 0 55899 14400.00000 0 -10881575.744 2432255.650 -22976457.433 10 0 55899 15300.00000 0 -12341053.620 52363.802 -22373189.110 10 0 55899 16200.00000 0 -13914647.168 -2128985.308 -21337616.498 10 0 55899 17100.00000 0 -15550017.719 -4067464.739 -19890280.157 10 0 55899 18000.00000 0 -17188835.347 -5729761.091 -18059553.238 10 0 55899 18900.00000 0 -18769157.253 -7094671.131 -15881072.220 10 0 55899 19800.00000 0 -20227965.134 -8153694.148 -13397040.498 10 0 55899 20700.00000 0 -21503758.164 -8911100.203 -10655418.421 10 0 55899 21600.00000 0 -22539096.828 -9383475.391 -7709014.476 10 0 55899 22500.00000 0 -23282995.308 -9598765.561 -4614493.374 10 0 55899 23400.00000 0 -23693066.335 -9594859.476 -1431317.798 10 0 55899 24300.00000 0 -23737332.349 -9417770.243 1779358.782 10 0 55899 25200.00000 0 -23395629.809 -9119489.529 4955830.162 10 0 55899 26100.00000 0 -22660549.265 -8755601.852 8036987.647 10 0 55899 27000.00000 0 -21537871.914 -8382755.912 10963463.559 10 0 55899 27900.00000 0 -20046482.806 -8056095.952 13678748.889 10 0 55899 28800.00000 0 -18217761.545 -7826758.205 16130265.825 10 0 55899 29700.00000 0 -16094471.931 -7739535.716 18270376.246 10 0 55899 30600.00000 0 -13729192.077 -7830808.909 20057307.660 10 0 55899 31500.00000 0 -11182345.482 -8126829.492 21455978.688 10 0 55899 32400.00000 0 -8519910.161 -8642431.935 22438707.338 10 0 55899 33300.00000 0 -5810896.907 -9380230.132 22985786.577 10 0 55899 34200.00000 0 -3124698.524 -10330337.555 23085913.436 10 0 55899 35100.00000 0 -528418.411 -11470627.918 22736460.028 10 0 55899 36000.00000 0 1915710.725 -12767530.868 21943577.404 10 0 55899 36900.00000 0 4152709.366 -14177334.323 20722126.147 10 0 55899 37800.00000 0 6136933.267 -15647942.881 19095431.058 10 0 55899 38700.00000 0 7833764.968 -17121021.220 17094861.036 10 0 55899 39600.00000 0 9220840.240 -18534433.346 14759239.423 10 0 55899 40500.00000 0 10288754.537 -19824874.358 12134094.361 10 0 55899 41400.00000 0 11041216.862 -20930581.447 9270762.976 10 0 55899 42300.00000 0 11494642.717 -21794005.972 6225367.530 10 0 55899 43200.00000 0 11677202.994 -22364329.184 3057685.353 10 0 55899 44100.00000 0 11627370.263 -22599710.308 -170062.312 10 0 55899 45000.00000 0 11392026.801 -22469167.342 -3394474.863 10 0 55899 45900.00000 0 11024218.705 -21954007.310 -6552261.048 10 0 55899 46800.00000 0 10580656.371 -21048743.189 -9581521.999 10 0 55899 47700.00000 0 10119072.719 -19761458.060 -12422999.062 10 0 55899 48600.00000 0 9695556.327 -18113602.152 -15021258.390 10 0 55899 49500.00000 0 9361976.761 -16139233.816 -17325786.602 10 0 55899 50400.00000 0 9163614.074 -13883740.080 -19291974.699 10 0 55899 51300.00000 0 9137094.060 -11402094.798 -20881971.162 10 0 55899 52200.00000 0 9308716.115 -8756731.662 -22065389.014 10 0 55899 53100.00000 0 9693242.182 -6015124.808 -22819855.624 10 0 55899 54000.00000 0 10293194.569 -3247180.624 -23131398.123 10 0 55899 54900.00000 0 11098687.996 -522550.519 -22994661.047 10 0 55899 55800.00000 0 12087798.527 2092023.952 -22412956.306 10 0 55899 56700.00000 0 13227449.722 4535225.533 -21398148.744 10 0 55899 57600.00000 0 14474775.442 6753434.561 -19970383.252 10 0 55899 58500.00000 0 15778899.918 8702671.428 -18157661.779 10 0 55899 59400.00000 0 17083059.625 10350133.102 -15995280.576 10 0 55899 60300.00000 0 18326978.667 11675265.513 -13525139.682 10 0 55899 61200.00000 0 19449400.080 12670332.409 -10794938.137 10 0 55899 62100.00000 0 20390670.017 13340461.461 -7857269.636 10 0 55899 63000.00000 0 21095270.302 13703168.983 -4768634.274 10 0 55899 63900.00000 0 21514197.158 13787384.834 -1588383.161 10 0 55899 64800.00000 0 21607090.216 13632018.680 1622386.782 10 0 55899 65700.00000 0 21344025.617 13284126.529 4801969.769 10 0 55899 66600.00000 0 20706900.104 12796752.137 7889201.211 10 0 55899 67500.00000 0 19690348.757 12226530.807 10824601.992 10 0 55899 68400.00000 0 18302157.098 11631152.790 13551497.825 10 0 55899 69300.00000 0 16563148.033 11066789.516 16017094.437 10 0 55899 70200.00000 0 14506544.739 10585588.123 18173489.635 10 0 55899 71100.00000 0 12176831.402 10233337.808 19978603.713 10 0 55899 72000.00000 0 9628154.210 10047405.633 21397010.250 10 0 55899 72900.00000 0 6922323.846 10055029.492 22400650.475 10 0 55899 73800.00000 0 4126497.705 10272042.364 22969415.637 10 0 55899 74700.00000 0 1310634.269 10702085.112 23091583.530 10 0 55899 75600.00000 0 -1455177.376 11336345.491 22764097.446 10 0 55899 76500.00000 0 -4103403.172 12153839.404 21992678.342 10 0 55899 77400.00000 0 -6571652.856 13122227.634 20791763.998 10 0 55899 78300.00000 0 -8805062.452 14199138.122 19184272.322 10 0 55899 79200.00000 0 -10758368.307 15333941.513 17201189.740 10 0 55899 80100.00000 0 -12397582.402 16469907.063 14880989.720 10 0 55899 81000.00000 0 -13701195.054 17546648.142 12268890.753 10 0 55899 81900.00000 0 -14660851.101 18502752.610 9415967.409 10 0 55899 82800.00000 0 -15281468.492 19278483.764 6378132.356 10 0 55899 83700.00000 0 -15580793.018 19818433.407 3215011.011 10 0 55899 84600.00000 0 -15588408.250 20074009.809 -11266.245 10 0 55899 85500.00000 0 -15344244.426 20005650.310 -3237326.642 10 0 55900 0.00000 0 -14896652.850 19584660.548 -6399843.200 10 0 55900 900.00000 0 -14300132.048 18794598.834 -9436819.007 10 0 55900 1800.00000 0 -13612806.986 17632146.465 -12288837.132 10 0 55900 2700.00000 0 -12893774.118 16107425.288 -14900249.193 10 0 55900 3600.00000 0 -12200428.741 14243752.493 -17220275.963 10 0 55900 4500.00000 0 -11585891.988 12076844.628 -19203997.288 10 0 55900 5400.00000 0 -11096648.162 9653508.595 -20813212.049 10 0 55900 6300.00000 0 -10770492.649 7029878.471 -22017152.729 10 0 55900 7200.00000 0 -10634875.657 4269275.955 -22793043.174 10 0 55900 8100.00000 0 -10705708.678 1439786.873 -23126492.204 10 0 55900 9000.00000 0 -10986679.898 -1388343.405 -23011719.499 10 0 55900 9900.00000 0 -11469102.697 -4145386.777 -22451613.718 10 0 55900 10800.00000 0 -12132298.856 -6764771.558 -21457625.966 10 0 55900 11700.00000 0 -12944496.183 -9185577.200 -20049504.455 10 0 55900 12600.00000 0 -13864199.567 -11354785.088 -18254878.590 10 0 55900 13500.00000 0 -14841975.965 -13229197.100 -16108702.770 10 0 55900 14400.00000 0 -15822577.916 -14776947.695 -13652571.783 10 0 55900 15300.00000 0 -16747317.411 -15978552.058 -10933921.280 10 0 55900 16200.00000 0 -17556592.742 -16827451.503 -8005127.918 10 0 55900 17100.00000 0 -18192465.505 -17330037.282 -4922524.837 10 0 55900 18000.00000 0 -18601183.310 -17505154.233 -1745349.131 10 0 55900 18900.00000 0 -18735546.168 -17383106.122 1465361.336 10 0 55900 19800.00000 0 -18557020.598 -17004203.862 4647903.784 10 0 55900 20700.00000 0 -18037515.327 -16416915.664 7741060.375 10 0 55900 21600.00000 0 -17160745.419 -15675693.921 10685243.236 10 0 55900 22500.00000 0 -15923127.530 -14838566.611 13423615.476 10 0 55900 23400.00000 0 -14334167.196 -13964590.712 15903168.958 10 0 55900 24300.00000 0 -12416318.838 -13111271.295 18075739.880 10 0 55900 25200.00000 0 -10204320.028 -12332052.117 19898943.550 10 0 55900 26100.00000 0 -7744022.656 -11673981.615 21337010.433 10 0 55900 27000.00000 0 -5090764.198 -11175652.208 22361506.542 10 0 55900 27900.00000 0 -2307341.380 -10865500.722 22951922.583 10 0 55900 28800.00000 0 538334.141 -10760543.937 23096117.871 10 0 55900 29700.00000 0 3375804.404 -10865606.154 22790607.223 10 0 55900 30600.00000 0 6134753.616 -11173075.726 22040681.447 10 0 55900 31500.00000 0 8747705.329 -11663205.561 20860355.077 10 0 55900 32400.00000 0 11152615.256 -12304949.460 19272138.304 10 0 55900 33300.00000 0 13295249.437 -13057302.826 17306633.876 10 0 55900 34200.00000 0 15131245.092 -13871093.662 15001963.790 10 0 55900 35100.00000 0 16627764.163 -14691149.250 12403034.885 10 0 55900 36000.00000 0 17764666.374 -15458746.169 9560656.759 10 0 55900 36900.00000 0 18535149.159 -16114237.631 6530529.683 10 0 55900 37800.00000 0 18945825.348 -16599743.131 3372124.018 10 0 55900 38700.00000 0 19016234.570 -16861781.738 147475.914 10 0 55900 39600.00000 0 18777809.848 -16853732.366 -3080073.202 10 0 55900 40500.00000 0 18272345.642 -16538011.900 -6247164.255 10 0 55900 41400.00000 0 17550036.099 -15887874.863 -9291705.434 10 0 55900 42300.00000 0 16667171.453 -14888755.715 -12154124.785 10 0 55900 43200.00000 0 15683595.425 -13539095.816 -14778562.276 10 0 55900 44100.00000 0 14660036.314 -11850620.618 -17113975.351 10 0 55900 45000.00000 0 13655428.932 -9848057.401 -19115134.836 10 0 55900 45900.00000 0 12724343.465 -7568308.563 -20743491.737 10 0 55900 46800.00000 0 11914631.036 -5059118.953 -21967899.291 10 0 55900 47700.00000 0 11265384.708 -2377297.045 -22765178.676 10 0 55900 48600.00000 0 10805299.524 413432.236 -23120520.797 10 0 55900 49500.00000 0 10551496.874 3244851.041 -23027720.464 10 0 55900 50400.00000 0 10508857.982 6046846.261 -22489242.673 10 0 55900 51300.00000 0 10669889.391 8750073.754 -21516124.016 10 0 55900 52200.00000 0 11015121.183 11288580.416 -20127714.926 10 0 55900 53100.00000 0 11514016.964 13602278.464 -18351270.879 10 0 55900 54000.00000 0 12126354.321 15639173.735 -16221402.749 10 0 55900 54900.00000 0 12804016.054 17357260.577 -13779398.145 10 0 55900 55800.00000 0 13493116.818 18726009.860 -11072427.123 10 0 55900 56700.00000 0 14136377.078 19727393.227 -8152646.852 10 0 55900 57600.00000 0 14675647.123 20356405.198 -5076220.819 10 0 55900 58500.00000 0 15054478.394 20621064.405 -1902269.228 10 0 55900 59400.00000 0 15220637.783 20541895.665 1308232.110 10 0 55900 60300.00000 0 15128462.808 20150914.799 4493586.447 10 0 55900 61200.00000 0 14740961.764 19490157.484 7592525.686 10 0 55900 62100.00000 0 14031572.627 18609811.415 10545356.051 10 0 55900 63000.00000 0 12985507.527 17566026.799 13295080.721 10 0 55900 63900.00000 0 11600625.609 16418493.302 15788480.148 10 0 55900 64800.00000 0 9887795.309 15227881.377 17977131.107 10 0 55900 65700.00000 0 7870727.071 14053252.075 19818345.855 10 0 55900 66600.00000 0 5585278.678 12949541.661 21276013.390 10 0 55900 67500.00000 0 3078256.573 11965225.380 22321325.863 10 0 55900 68400.00000 0 405757.363 11140258.564 22933374.453 10 0 55900 69300.00000 0 -2368886.795 10504383.056 23099600.645 10 0 55900 70200.00000 0 -5177478.022 10075872.861 22816091.001 10 0 55900 71100.00000 0 -7949542.516 9860775.458 22087705.936 10 0 55900 72000.00000 0 -10615034.216 9852684.991 20928035.975 10 0 55900 72900.00000 0 -13107039.926 10033061.271 19359182.314 10 0 55900 73800.00000 0 -15364371.677 10372085.019 17411362.225 10 0 55900 74700.00000 0 -17333935.188 10830016.274 15122343.967 10 0 55900 75600.00000 0 -18972771.753 11359000.169 12536720.079 10 0 55900 76500.00000 0 -20249683.889 11905243.738 9705032.250 10 0 55900 77400.00000 0 -21146372.575 12411469.971 6682765.244 10 0 55900 78300.00000 0 -21658035.212 12819541.934 3529231.176 10 0 55900 79200.00000 0 -21793397.274 13073141.387 306368.769 10 0 55900 80100.00000 0 -21574176.071 13120383.226 -2922515.025 10 0 55900 81000.00000 0 -21034000.774 12916249.743 -6094031.990 10 0 55900 81900.00000 0 -20216837.416 12424736.835 -9145998.416 10 0 55900 82800.00000 0 -19174989.823 11620617.658 -12018689.969 10 0 55900 83700.00000 0 -17966766.095 10490746.888 -14656037.403 10 0 55900 84600.00000 0 -16653914.531 9034849.911 -17006736.971 10 0 55900 85500.00000 0 -15298942.049 7265764.713 -19025252.263 10 0 55901 0.00000 0 -13962431.919 5209128.741 -20672687.757 10 0 55901 900.00000 0 -12700476.147 2902526.864 -21917518.470 10 0 55901 1800.00000 0 -11562330.474 394140.947 -22736163.423 10 0 55901 2700.00000 0 -10588390.222 -2259040.133 -23113395.753 10 0 55901 3600.00000 0 -9808567.555 -4993371.219 -23042585.157 10 0 55901 4500.00000 0 -9241134.956 -7740971.261 -22525772.379 10 0 55901 5400.00000 0 -8892077.749 -10432311.986 -21573578.590 10 0 55901 6300.00000 0 -8754977.544 -12998868.304 -20204955.233 10 0 55901 7200.00000 0 -8811426.488 -15375722.695 -18446782.387 10 0 55901 8100.00000 0 -9031950.748 -17504019.191 -16333325.714 10 0 55901 9000.00000 0 -9377401.595 -19333169.628 -13905563.780 10 0 55901 9900.00000 0 -9800754.288 -20822725.451 -11210399.067 10 0 55901 10800.00000 0 -10249239.332 -21943842.272 -8299767.195 10 0 55901 11700.00000 0 -10666718.078 -22680280.702 -5229659.893 10 0 55901 12600.00000 0 -10996205.471 -23028905.239 -2059078.347 10 0 55901 13500.00000 0 -11182437.221 -22999662.737 1151065.859 10 0 55901 14400.00000 0 -11174377.018 -22615042.220 4339084.219 10 0 55901 15300.00000 0 -10927561.687 -21909038.046 7443660.644 10 0 55901 16200.00000 0 -10406188.274 -20925657.927 10404997.784 10 0 55901 17100.00000 0 -9584856.762 -19717035.262 13165941.253 10 0 55901 18000.00000 0 -8449895.288 -18341221.196 15673062.452 10 0 55901 18900.00000 0 -7000210.741 -16859744.964 17877681.036 10 0 55901 19800.00000 0 -5247625.990 -15335040.941 19736808.379 10 0 55901 20700.00000 0 -3216685.338 -13827847.131 21213993.984 10 0 55901 21600.00000 0 -943930.953 -12394681.946 22280057.851 10 0 55901 22500.00000 0 1523325.370 -11085504.102 22913693.034 10 0 55901 23400.00000 0 4128689.673 -9941654.264 23101924.255 10 0 55901 24300.00000 0 6808767.487 -8994166.518 22840410.538 10 0 55901 25200.00000 0 9495557.186 -8262523.467 22133582.266 10 0 55901 26100.00000 0 12119058.067 -7753910.983 20994605.951 10 0 55901 27000.00000 0 14609985.583 -7463008.015 19445173.420 10 0 55901 27900.00000 0 16902479.927 -7372324.197 17515115.719 10 0 55901 28800.00000 0 18936692.575 -7453074.319 15241846.212 10 0 55901 29700.00000 0 20661139.297 -7666554.840 12669641.555 10 0 55901 30600.00000 0 22034716.921 -7965964.949 9848773.488 10 0 55901 31500.00000 0 23028294.886 -8298594.157 6834508.777 10 0 55901 32400.00000 0 23625810.899 -8608281.200 3685998.380 10 0 55901 33300.00000 0 23824821.773 -8838036.097 465080.327 10 0 55901 34200.00000 0 23636484.826 -8932709.280 -2764976.408 10 0 55901 35100.00000 0 23084971.012 -8841589.317 -5940758.095 10 0 55901 36000.00000 0 22206336.603 -8520813.934 -8999992.703 10 0 55901 36900.00000 0 21046904.641 -7935487.856 -11882806.932 10 0 55901 37800.00000 0 19661229.157 -7061414.671 -14532925.460 10 0 55901 38700.00000 0 18109733.233 -5886367.926 -16898786.154 10 0 55901 39600.00000 0 16456125.571 -4410847.869 -18934547.778 10 0 55901 40500.00000 0 14764708.714 -2648293.547 -20600970.362 10 0 55901 41400.00000 0 13097695.150 -624744.080 -21866152.194 10 0 55901 42300.00000 0 11512645.465 1622033.032 -22706111.388 10 0 55901 43200.00000 0 10060135.570 4043906.384 -23105204.107 10 0 55901 44100.00000 0 8781748.501 6584177.472 -23056375.302 10 0 55901 45000.00000 0 7708471.101 9179732.227 -22561241.428 10 0 55901 45900.00000 0 6859557.749 11763456.308 -21630007.797 10 0 55901 46800.00000 0 6241903.124 14266813.692 -20281226.057 10 0 55901 47700.00000 0 5849944.735 16622482.836 -18541399.721 10 0 55901 48600.00000 0 5666094.281 18766943.699 -16444447.732 10 0 55901 49500.00000 0 5661675.772 20642912.104 -14031037.775 10 0 55901 50400.00000 0 5798328.509 22201524.743 -11347802.601 10 0 55901 51300.00000 0 6029814.968 23404188.796 -8446453.821 10 0 55901 52200.00000 0 6304158.115 24224023.767 -5382808.683 10 0 55901 53100.00000 0 6566020.161 24646839.229 -2215746.395 10 0 55901 54000.00000 0 6759225.527 24671610.545 993888.788 10 0 55901 54900.00000 0 6829325.279 24310434.136 4184419.788 10 0 55901 55800.00000 0 6726098.597 23587964.162 7294485.685 10 0 55901 56700.00000 0 6405889.069 22540352.815 10264188.635 10 0 55901 57600.00000 0 5833679.666 21213735.857 13036219.585 10 0 55901 58500.00000 0 4984820.092 19662323.302 15556943.575 10 0 55901 59400.00000 0 3846333.349 17946171.013 17777425.576 10 0 55901 60300.00000 0 2417744.496 16128722.321 19654378.240 10 0 55901 61200.00000 0 711393.298 14274218.812 21151013.445 10 0 55901 62100.00000 0 -1247787.184 12445085.616 22237780.589 10 0 55901 63000.00000 0 -3423022.484 10699398.741 22892975.815 10 0 55901 63900.00000 0 -5766953.553 9088539.935 23103207.900 10 0 55901 64800.00000 0 -8223351.816 7655138.070 22863708.717 10 0 55901 65700.00000 0 -10729225.859 6431385.328 22178478.510 10 0 55901 66600.00000 0 -13217235.461 5437801.934 21060259.161 10 0 55901 67500.00000 0 -15618314.401 4682504.905 19530331.950 10 0 55901 68400.00000 0 -17864392.875 4161015.400 17618139.971 10 0 55901 69300.00000 0 -19891104.315 3856616.194 15360739.457 10 0 55901 70200.00000 0 -21640360.524 3741246.804 12802088.484 10 0 55901 71100.00000 0 -23062683.260 3776899.707 9992185.805 10 0 55901 72000.00000 0 -24119189.947 3917458.424 6986076.897 10 0 55901 72900.00000 0 -24783145.651 4110897.777 3842748.134 10 0 55901 73800.00000 0 -25041012.390 4301749.706 623933.397 10 0 55901 74700.00000 0 -24892949.049 4433725.608 -2607139.730 10 0 55901 75600.00000 0 -24352740.028 4452378.695 -5787035.301 10 0 55901 76500.00000 0 -23447156.503 4307688.100 -8853396.105 10 0 55901 77400.00000 0 -22214779.855 3956450.301 -11746202.820 10 0 55901 78300.00000 0 -20704340.823 3364372.666 -14408976.730 10 0 55901 79200.00000 0 -18972649.234 2507778.024 -16789899.668 10 0 55901 80100.00000 0 -17082206.593 1374847.417 -18842827.534 10 0 55901 81000.00000 0 -15098606.669 -33650.672 -20528177.371 10 0 55901 81900.00000 0 -13087836.963 -1704173.171 -21813671.776 10 0 55901 82800.00000 0 -11113596.565 -3610762.025 -22674928.379 10 0 55901 83700.00000 0 -9234743.244 -5715931.756 -23095886.287 10 0 55901 84600.00000 0 -7502975.210 -7972044.217 -23069065.160 10 0 55901 85500.00000 0 -5960841.465 -10323109.855 -22595656.179 99